Zurück zum Katalog

STARLINK-11617

AktivKommunikationVLEO
NORAD 63184·PAYLOAD·🇺🇸 United States

Gestartet Mar 13, 2025 von Cape Canaveral Space Force Station

Loading…

Nächste Überflüge (nächste 24 Stunden)

TLE

AktuellSource: CelesTrak SupGP

Epoche: Sep 14, 2026, 20:51 UTC

1 63184C 25048B   26257.86923611  .00014072  00000+0  10933-3 0  2578
2 63184  43.0007 259.8189 0001611 254.0375  32.1645 15.70823210    16

Verfolge STARLINK-11617 in Echtzeit mit AllMySat

Download on the App Store